This is the latest recevied weather packets stored in our database for station/object N7IGG. If no packets are shown the sender has not sent any weather packets the latest 10 day(s).
| Time | Temp. | Humidity | Pressure | Rain* | Wind** | Luminosity | Snow |
|---|---|---|---|---|---|---|---|
| 1777860343 | 26.67° C | 39% | 1009.4 hPa | 0 mm | - | 103 W/m² | - |
| 1777860040 | 26.67° C | 41% | 1009.3 hPa | 0 mm | - | 114 W/m² | - |
| 1777859736 | 26.11° C | 41% | 1009.2 hPa | 0 mm | - | 120 W/m² | - |
| 1777859432 | 25.56° C | 43% | 1009.1 hPa | 0 mm | - | 131 W/m² | - |
| 1777859129 | 23.89° C | 50% | 1009.4 hPa | 0 mm | - | 132 W/m² | - |
| 1777858826 | 22.78° C | 51% | 1009.4 hPa | 0 mm | - | 149 W/m² | - |
| 1777858524 | 26.67° C | 42% | 1009.5 hPa | 0 mm | - | 171 W/m² | - |
| 1777858220 | 26.67° C | 42% | 1009.5 hPa | 0 mm | - | 175 W/m² | - |
| 1777857918 | 26.11° C | 43% | 1009.4 hPa | 0 mm | - | 186 W/m² | - |
| 1777857616 | 26.67° C | 44% | 1009.5 hPa | 0 mm | - | 177 W/m² | - |
| 1777857312 | 25.56° C | 45% | 1009.6 hPa | 0 mm | - | 219 W/m² | - |
| 1777857008 | 24.44° C | 47% | 1009.5 hPa | 0 mm | - | 228 W/m² | - |
| 1777856704 | 25° C | 48% | 1009.4 hPa | 0 mm | - | 242 W/m² | - |
| 1777856400 | 24.44° C | 51% | 1009.6 hPa | 0 mm | - | 256 W/m² | - |
| 1777856097 | 22.78° C | 55% | 1009.8 hPa | 0 mm | - | 246 W/m² | - |
| 1777855794 | 23.33° C | 52% | 1009.8 hPa | 0 mm | - | 274 W/m² | - |
| 1777855492 | 22.78° C | 54% | 1009.7 hPa | 0 mm | - | 265 W/m² | - |
| 1777855189 | 22.22° C | 57% | 1009.8 hPa | 0 mm | - | 281 W/m² | - |
| 1777854885 | 22.78° C | 55% | 1009.9 hPa | 0 mm | - | 291 W/m² | - |
| 1777854582 | 22.78° C | 55% | 1009.9 hPa | 0 mm | - | 341 W/m² | - |
| 1777854279 | 22.78° C | 55% | 1010 hPa | 0 mm | - | 278 W/m² | - |
| 1777853976 | 22.78° C | 56% | 1009.8 hPa | 0 mm | - | 382 W/m² | - |
| 1777853673 | 23.33° C | 54% | 1010 hPa | 0 mm | - | 400 W/m² | - |
| 1777853370 | 22.22° C | 57% | 1010.2 hPa | 0 mm | - | 424 W/m² | - |
| 1777853067 | 22.22° C | 57% | 1010.1 hPa | 0 mm | - | 426 W/m² | - |
* Rain latest hour (hover to see other rain measurements)
** Current wind speed in m/s (hover to see current wind gust speed)